Time,TemperatureF,DewpointF,PressureIn,WindDirection,WindDirectionDegrees,WindSpeedMPH,WindSpeedGustMPH,Humidity,HourlyPrecipIn,Conditions,Clouds,dailyrainin,SolarRadiationWatts/m^2,SoftwareType,DateUTC
2013-03-31 00:23:00,60.0,52.0,-100.00,South,189,8.0,11.0,74,0.00,,,0.00,0.000000,,2013-03-31 04:23:00,
2013-03-31 00:33:00,60.0,52.0,-100.00,South,189,8.0,11.0,74,0.00,,,0.00,0.000000,,2013-03-31 04:33:00,
2013-03-31 00:42:00,60.0,52.0,-100.00,South,189,8.0,11.0,74,0.00,,,0.00,0.000000,,2013-03-31 04:42:00,
2013-03-31 00:52:00,60.0,52.0,-100.00,South,189,8.0,11.0,74,0.00,,,0.00,0.000000,,2013-03-31 04:52:00,
2013-03-31 01:22:00,61.0,53.0,-100.00,SSW,193,9.0,14.0,76,0.00,,,0.00,0.000000,,2013-03-31 05:22:00,
2013-03-31 01:32:00,61.0,53.0,-100.00,SSW,193,9.0,14.0,76,0.00,,,0.00,0.000000,,2013-03-31 05:32:00,
2013-03-31 01:42:00,61.0,53.0,-100.00,SSW,193,9.0,14.0,76,0.00,,,0.00,0.000000,,2013-03-31 05:42:00,
2013-03-31 01:52:00,61.0,53.0,-100.00,SSW,193,9.0,14.0,76,0.00,,,0.00,0.000000,,2013-03-31 05:52:00,
2013-03-31 02:23:00,61.0,53.0,-100.00,SSW,193,10.0,15.0,74,0.00,,,0.00,0.000000,,2013-03-31 06:23:00,
2013-03-31 02:33:00,61.0,53.0,-100.00,SSW,193,10.0,15.0,74,0.00,,,0.00,0.000000,,2013-03-31 06:33:00,
2013-03-31 02:42:00,61.0,53.0,-100.00,SSW,193,10.0,15.0,74,0.00,,,0.00,0.000000,,2013-03-31 06:42:00,
2013-03-31 02:52:00,61.0,53.0,-100.00,SSW,193,10.0,15.0,74,0.00,,,0.00,0.000000,,2013-03-31 06:52:00,
2013-03-31 03:22:00,60.0,55.0,-100.00,South,173,7.0,16.0,83,0.00,,,0.00,0.000000,,2013-03-31 07:22:00,
2013-03-31 03:33:00,60.0,55.0,-100.00,South,173,7.0,16.0,83,0.00,,,0.00,0.000000,,2013-03-31 07:33:00,
2013-03-31 03:43:00,60.0,55.0,-100.00,South,173,7.0,16.0,83,0.00,,,0.00,0.000000,,2013-03-31 07:43:00,
2013-03-31 03:52:00,60.0,55.0,-100.00,South,173,7.0,16.0,83,0.00,,,0.00,0.000000,,2013-03-31 07:52:00,
2013-03-31 04:22:00,59.0,55.0,-100.00,SSE,159,5.0,9.0,87,0.00,,,0.00,0.000000,,2013-03-31 08:22:00,
2013-03-31 04:32:00,59.0,55.0,-100.00,SSE,159,5.0,9.0,87,0.00,,,0.00,0.000000,,2013-03-31 08:32:00,
2013-03-31 04:42:00,59.0,55.0,-100.00,SSE,159,5.0,9.0,87,0.00,,,0.00,0.000000,,2013-03-31 08:42:00,
2013-03-31 04:52:00,59.0,55.0,-100.00,SSE,159,5.0,9.0,87,0.00,,,0.00,0.000000,,2013-03-31 08:52:00,
2013-03-31 05:22:00,58.0,54.0,-100.00,SSE,167,5.0,7.0,88,0.00,,,0.00,0.000000,,2013-03-31 09:22:00,
2013-03-31 05:33:00,58.0,54.0,-100.00,SSE,167,5.0,7.0,88,0.00,,,0.00,0.000000,,2013-03-31 09:33:00,
2013-03-31 05:43:00,58.0,54.0,-100.00,SSE,167,5.0,7.0,88,0.00,,,0.00,0.000000,,2013-03-31 09:43:00,
2013-03-31 05:53:00,58.0,54.0,-100.00,SSE,167,5.0,7.0,88,0.00,,,0.00,0.000000,,2013-03-31 09:53:00,
2013-03-31 06:24:00,57.0,53.0,-100.00,SSE,165,4.0,7.0,86,0.00,,,0.00,0.000000,,2013-03-31 10:24:00,
2013-03-31 06:33:00,57.0,53.0,-100.00,SSE,165,4.0,7.0,86,0.00,,,0.00,0.000000,,2013-03-31 10:33:00,
2013-03-31 06:42:00,57.0,53.0,-100.00,SSE,165,4.0,7.0,86,0.00,,,0.00,0.000000,,2013-03-31 10:42:00,
2013-03-31 06:53:00,57.0,53.0,-100.00,SSE,165,4.0,7.0,86,0.00,,,0.00,0.000000,,2013-03-31 10:53:00,
2013-03-31 07:23:00,58.0,51.0,-100.00,South,191,7.0,9.0,77,0.00,,,0.00,0.000000,,2013-03-31 11:23:00,
2013-03-31 07:33:00,58.0,51.0,-100.00,South,191,7.0,9.0,77,0.00,,,0.00,0.000000,,2013-03-31 11:33:00,
2013-03-31 07:42:00,58.0,51.0,-100.00,South,191,7.0,9.0,77,0.00,,,0.00,0.000000,,2013-03-31 11:42:00,
2013-03-31 07:52:00,58.0,51.0,-100.00,South,191,7.0,9.0,77,0.00,,,0.00,0.000000,,2013-03-31 11:52:00,
2013-03-31 08:22:00,58.0,50.0,-100.00,SW,218,5.0,11.0,76,0.00,,,0.00,8.000000,,2013-03-31 12:22:00,
2013-03-31 08:33:00,58.0,50.0,-100.00,SW,218,5.0,11.0,76,0.00,,,0.00,8.000000,,2013-03-31 12:33:00,
2013-03-31 08:42:00,58.0,50.0,-100.00,SW,218,5.0,11.0,76,0.00,,,0.00,8.000000,,2013-03-31 12:42:00,
2013-03-31 08:52:00,58.0,50.0,-100.00,SW,218,5.0,11.0,76,0.00,,,0.00,8.000000,,2013-03-31 12:52:00,
2013-03-31 09:23:00,55.0,52.0,-100.00,South,172,6.0,9.0,88,0.04,,,0.04,20.000000,,2013-03-31 13:23:00,
2013-03-31 09:32:00,55.0,52.0,-100.00,South,172,6.0,9.0,88,0.04,,,0.04,20.000000,,2013-03-31 13:32:00,
2013-03-31 09:42:00,55.0,52.0,-100.00,South,172,6.0,9.0,88,0.04,,,0.04,20.000000,,2013-03-31 13:42:00,
2013-03-31 09:52:00,55.0,52.0,-100.00,South,172,6.0,9.0,88,0.04,,,0.04,20.000000,,2013-03-31 13:52:00,
2013-03-31 10:22:00,59.0,52.0,-100.00,South,187,6.0,9.0,79,0.00,,,0.04,180.000000,,2013-03-31 14:22:00,
2013-03-31 10:33:00,59.0,52.0,-100.00,South,187,6.0,9.0,79,0.00,,,0.04,180.000000,,2013-03-31 14:33:00,
2013-03-31 10:43:00,59.0,52.0,-100.00,South,187,6.0,9.0,79,0.00,,,0.04,180.000000,,2013-03-31 14:43:00,
2013-03-31 10:52:00,59.0,52.0,-100.00,South,187,6.0,9.0,79,0.00,,,0.04,180.000000,,2013-03-31 14:52:00,
2013-03-31 11:23:00,67.0,54.0,-100.00,SSW,211,9.0,16.0,63,0.00,,,0.04,590.000000,,2013-03-31 15:23:00,
2013-03-31 11:34:00,67.0,54.0,-100.00,SSW,211,9.0,16.0,63,0.00,,,0.04,590.000000,,2013-03-31 15:34:00,
2013-03-31 11:43:00,67.0,54.0,-100.00,SSW,211,9.0,16.0,63,0.00,,,0.04,590.000000,,2013-03-31 15:43:00,
2013-03-31 11:53:00,67.0,54.0,-100.00,SSW,211,9.0,16.0,63,0.00,,,0.04,590.000000,,2013-03-31 15:53:00,
2013-03-31 12:23:00,64.0,56.0,-100.00,SW,229,8.0,20.0,75,0.01,,,0.05,323.000000,,2013-03-31 16:23:00,
2013-03-31 12:33:00,64.0,56.0,-100.00,SW,229,8.0,20.0,75,0.01,,,0.05,323.000000,,2013-03-31 16:33:00,
2013-03-31 12:43:00,64.0,56.0,-100.00,SW,229,8.0,20.0,75,0.01,,,0.05,323.000000,,2013-03-31 16:43:00,
2013-03-31 12:53:00,64.0,56.0,-100.00,SW,229,8.0,20.0,75,0.01,,,0.05,323.000000,,2013-03-31 16:53:00,
2013-03-31 13:23:00,62.0,57.0,-100.00,SSW,200,7.0,12.0,85,0.01,,,0.06,231.000000,,2013-03-31 17:23:00,
2013-03-31 13:32:00,62.0,57.0,-100.00,SSW,200,7.0,12.0,85,0.01,,,0.06,231.000000,,2013-03-31 17:32:00,
2013-03-31 13:43:00,62.0,57.0,-100.00,SSW,200,7.0,12.0,85,0.01,,,0.06,231.000000,,2013-03-31 17:43:00,
2013-03-31 13:52:00,62.0,57.0,-100.00,SSW,200,7.0,12.0,85,0.01,,,0.06,231.000000,,2013-03-31 17:52:00,
2013-03-31 14:22:00,68.0,59.0,-100.00,South,179,10.0,14.0,74,0.00,,,0.06,608.000000,,2013-03-31 18:22:00,
2013-03-31 14:33:00,68.0,59.0,-100.00,South,179,10.0,14.0,74,0.00,,,0.06,608.000000,,2013-03-31 18:33:00,
2013-03-31 14:42:00,68.0,59.0,-100.00,South,179,10.0,14.0,74,0.00,,,0.06,608.000000,,2013-03-31 18:42:00,
2013-03-31 14:52:00,68.0,59.0,-100.00,South,179,10.0,14.0,74,0.00,,,0.06,608.000000,,2013-03-31 18:52:00,
2013-03-31 15:22:00,74.0,57.0,-100.00,SW,229,13.0,20.0,55,0.00,,,0.06,856.000000,,2013-03-31 19:22:00,
2013-03-31 15:33:00,74.0,57.0,-100.00,SW,229,13.0,20.0,55,0.00,,,0.06,856.000000,,2013-03-31 19:33:00,
2013-03-31 15:43:00,74.0,57.0,-100.00,SW,229,13.0,20.0,55,0.00,,,0.06,856.000000,,2013-03-31 19:43:00,
2013-03-31 15:53:00,74.0,57.0,-100.00,SW,229,13.0,20.0,55,0.00,,,0.06,856.000000,,2013-03-31 19:53:00,
2013-03-31 16:23:00,73.0,57.0,-100.00,South,178,14.0,19.0,57,0.00,,,0.06,732.000000,,2013-03-31 20:23:00,
2013-03-31 16:34:00,73.0,57.0,-100.00,South,178,14.0,19.0,57,0.00,,,0.06,732.000000,,2013-03-31 20:34:00,
2013-03-31 16:43:00,73.0,57.0,-100.00,South,178,14.0,19.0,57,0.00,,,0.06,732.000000,,2013-03-31 20:43:00,
2013-03-31 16:52:00,73.0,57.0,-100.00,South,178,14.0,19.0,57,0.00,,,0.06,732.000000,,2013-03-31 20:52:00,
2013-03-31 17:22:00,72.0,56.0,-100.00,South,178,15.0,21.0,57,0.00,,,0.06,603.000000,,2013-03-31 21:22:00,
2013-03-31 17:34:00,72.0,56.0,-100.00,South,178,15.0,21.0,57,0.00,,,0.06,603.000000,,2013-03-31 21:34:00,
2013-03-31 17:43:00,72.0,56.0,-100.00,South,178,15.0,21.0,57,0.00,,,0.06,603.000000,,2013-03-31 21:43:00,
2013-03-31 17:53:00,72.0,56.0,-100.00,South,178,15.0,21.0,57,0.00,,,0.06,603.000000,,2013-03-31 21:53:00,
2013-03-31 18:24:00,73.0,55.0,-100.00,South,189,13.0,22.0,54,0.00,,,0.06,409.000000,,2013-03-31 22:24:00,
2013-03-31 18:33:00,73.0,55.0,-100.00,South,189,13.0,22.0,54,0.00,,,0.06,409.000000,,2013-03-31 22:33:00,
2013-03-31 18:43:00,73.0,55.0,-100.00,South,189,13.0,22.0,54,0.00,,,0.06,409.000000,,2013-03-31 22:43:00,
2013-03-31 18:53:00,73.0,55.0,-100.00,South,189,13.0,22.0,54,0.00,,,0.06,409.000000,,2013-03-31 22:53:00,
2013-03-31 19:22:00,67.0,54.0,-100.00,South,183,13.0,23.0,62,0.00,,,0.06,178.000000,,2013-03-31 23:22:00,
2013-03-31 19:33:00,67.0,54.0,-100.00,South,183,13.0,23.0,62,0.00,,,0.06,178.000000,,2013-03-31 23:33:00,
2013-03-31 19:43:00,67.0,54.0,-100.00,South,183,13.0,23.0,62,0.00,,,0.06,178.000000,,2013-03-31 23:43:00,
2013-03-31 19:53:00,67.0,54.0,-100.00,South,183,13.0,23.0,62,0.00,,,0.06,178.000000,,2013-03-31 23:53:00,
2013-03-31 20:22:00,63.0,57.0,-100.00,SSW,192,5.0,18.0,80,0.01,,,0.07,26.000000,,2013-04-01 00:22:00,
2013-03-31 20:32:00,63.0,57.0,-100.00,SSW,192,5.0,18.0,80,0.01,,,0.07,26.000000,,2013-04-01 00:32:00,
2013-03-31 20:43:00,63.0,57.0,-100.00,SSW,192,5.0,18.0,80,0.01,,,0.07,26.000000,,2013-04-01 00:43:00,
2013-03-31 20:52:00,63.0,57.0,-100.00,SSW,192,5.0,18.0,80,0.01,,,0.07,26.000000,,2013-04-01 00:52:00,
2013-03-31 21:23:00,62.0,56.0,-100.00,South,179,7.0,9.0,81,0.00,,,0.07,0.000000,,2013-04-01 01:23:00,
2013-03-31 21:33:00,62.0,56.0,-100.00,South,179,7.0,9.0,81,0.00,,,0.07,0.000000,,2013-04-01 01:33:00,
2013-03-31 21:42:00,62.0,56.0,-100.00,South,179,7.0,9.0,81,0.00,,,0.07,0.000000,,2013-04-01 01:42:00,
2013-03-31 21:52:00,62.0,56.0,-100.00,South,179,7.0,9.0,81,0.00,,,0.07,0.000000,,2013-04-01 01:52:00,
2013-03-31 22:23:00,62.0,56.0,-100.00,South,182,7.0,12.0,81,0.00,,,0.07,0.000000,,2013-04-01 02:23:00,
2013-03-31 22:33:00,62.0,56.0,-100.00,South,182,7.0,12.0,81,0.00,,,0.07,0.000000,,2013-04-01 02:33:00,
2013-03-31 22:42:00,62.0,56.0,-100.00,South,182,7.0,12.0,81,0.00,,,0.07,0.000000,,2013-04-01 02:42:00,
2013-03-31 22:52:00,62.0,56.0,-100.00,South,182,7.0,12.0,81,0.00,,,0.07,0.000000,,2013-04-01 02:52:00,
2013-03-31 23:23:00,62.0,57.0,-100.00,South,189,4.0,11.0,84,0.00,,,0.07,0.000000,,2013-04-01 03:23:00,
2013-03-31 23:34:00,62.0,57.0,-100.00,South,189,4.0,11.0,84,0.00,,,0.07,0.000000,,2013-04-01 03:34:00,
2013-03-31 23:43:00,62.0,57.0,-100.00,South,189,4.0,11.0,84,0.00,,,0.07,0.000000,,2013-04-01 03:43:00,
2013-03-31 23:53:00,62.0,57.0,-100.00,South,189,4.0,11.0,84,0.00,,,0.07,0.000000,,2013-04-01 03:53:00,